Time,TemperatureF,DewpointF,PressureIn,WindDirection,WindDirectionDegrees,WindSpeedMPH,WindSpeedGustMPH,Humidity,HourlyPrecipIn,Conditions,Clouds,dailyrainin,SoftwareType,DateUTC
2013-06-09 00:03:00,50.9,45.3,29.06,East,90,2.3,2.3,81,0.00,CLR,OVC,0.00,WeatherDisplay:10.37,2013-06-09 07:03:00,
2013-06-09 00:08:00,50.7,45.1,29.07,South,180,2.3,2.3,81,0.00,CLR,OVC,0.00,WeatherDisplay:10.37,2013-06-09 07:08:00,
2013-06-09 00:13:00,50.7,45.4,29.07,North,0,2.3,2.3,82,0.00,CLR,OVC,0.00,WeatherDisplay:10.37,2013-06-09 07:13:00,
2013-06-09 00:18:00,50.5,44.9,29.07,SE,135,2.3,2.3,81,0.00,CLR,OVC,0.00,WeatherDisplay:10.37,2013-06-09 07:18:00,
2013-06-09 00:23:00,50.4,45.1,29.07,SE,135,2.3,2.3,82,0.00,CLR,OVC,0.00,WeatherDisplay:10.37,2013-06-09 07:23:00,
2013-06-09 00:28:00,50.4,45.1,29.07,SE,135,1.4,1.4,82,0.00,CLR,OVC,0.00,WeatherDisplay:10.37,2013-06-09 07:28:00,
2013-06-09 00:33:00,50.2,45.2,29.07,SSE,158,2.3,2.3,83,0.00,CLR,OVC,0.00,WeatherDisplay:10.37,2013-06-09 07:33:00,
2013-06-09 00:38:00,50.2,45.5,29.07,SW,225,2.3,2.3,84,0.00,CLR,OVC,0.00,WeatherDisplay:10.37,2013-06-09 07:38:00,
2013-06-09 00:43:00,50.2,45.5,29.07,West,270,3.5,3.5,84,0.00,CLR,OVC,0.00,WeatherDisplay:10.37,2013-06-09 07:43:00,
2013-06-09 00:48:00,50.2,45.5,29.07,SE,135,3.5,3.5,84,0.00,CLR,OVC,0.00,WeatherDisplay:10.37,2013-06-09 07:48:00,
2013-06-09 00:53:00,50.2,45.5,29.07,SE,135,2.4,2.4,84,0.00,CLR,OVC,0.00,WeatherDisplay:10.37,2013-06-09 07:53:00,
2013-06-09 00:58:00,50.2,45.5,29.07,South,180,2.3,2.3,84,0.00,CLR,OVC,0.00,WeatherDisplay:10.37,2013-06-09 07:58:00,
2013-06-09 01:03:00,50.4,46.0,29.07,NNW,338,2.4,2.4,85,0.00,CLR,OVC,0.00,WeatherDisplay:10.37,2013-06-09 08:03:00,
2013-06-09 01:08:00,50.4,45.7,29.06,WNW,292,3.5,3.5,84,0.00,CLR,OVC,0.00,WeatherDisplay:10.37,2013-06-09 08:08:00,
2013-06-09 01:13:00,50.4,46.0,29.06,SSE,158,2.3,2.3,85,0.00,CLR,OVC,0.00,WeatherDisplay:10.37,2013-06-09 08:13:00,
2013-06-09 01:18:00,50.4,46.0,29.07,NNW,338,2.4,2.4,85,0.00,CLR,OVC,0.00,WeatherDisplay:10.37,2013-06-09 08:18:00,
2013-06-09 01:23:00,50.4,46.3,29.06,SW,225,5.8,5.8,86,0.00,CLR,OVC,0.00,WeatherDisplay:10.37,2013-06-09 08:23:00,
2013-06-09 01:28:00,50.4,46.0,29.07,SSW,202,2.3,2.3,85,0.00,CLR,OVC,0.00,WeatherDisplay:10.37,2013-06-09 08:28:00,
2013-06-09 01:33:00,50.4,46.0,29.06,East,90,2.3,2.3,85,0.00,CLR,OVC,0.00,WeatherDisplay:10.37,2013-06-09 08:33:00,
2013-06-09 01:38:00,50.4,46.0,29.06,SE,135,2.4,2.4,85,0.00,CLR,OVC,0.00,WeatherDisplay:10.37,2013-06-09 08:38:00,
2013-06-09 01:43:00,50.4,46.0,29.06,WSW,248,2.3,2.3,85,0.00,CLR,OVC,0.00,WeatherDisplay:10.37,2013-06-09 08:43:00,
2013-06-09 01:48:00,50.4,46.0,29.06,SSW,202,2.3,2.3,85,0.00,CLR,OVC,0.00,WeatherDisplay:10.37,2013-06-09 08:48:00,
2013-06-09 01:53:00,50.4,45.7,29.06,SW,225,2.3,2.3,84,0.00,CLR,OVC,0.00,WeatherDisplay:10.37,2013-06-09 08:53:00,
2013-06-09 01:58:00,50.4,46.0,29.06,SW,225,2.3,2.3,85,0.00,CLR,OVC,0.00,WeatherDisplay:10.37,2013-06-09 08:58:00,
2013-06-09 02:03:00,50.4,45.7,29.06,South,180,2.3,0.0,84,0.00,CLR,OVC,0.00,WeatherDisplay:10.37,2013-06-09 09:03:00,
2013-06-09 02:08:00,50.2,45.8,29.06,WSW,248,2.3,2.4,85,0.00,CLR,OVC,0.00,WeatherDisplay:10.37,2013-06-09 09:08:00,
2013-06-09 02:13:00,50.0,45.7,29.06,WNW,292,2.3,2.3,85,0.00,CLR,OVC,0.00,WeatherDisplay:10.37,2013-06-09 09:13:00,
2013-06-09 02:18:00,49.8,45.8,29.06,WSW,248,3.5,3.5,86,0.00,CLR,OVC,0.00,WeatherDisplay:10.37,2013-06-09 09:18:00,
2013-06-09 02:23:00,49.8,45.8,29.06,SE,135,2.3,2.3,86,0.00,CLR,OVC,0.00,WeatherDisplay:10.37,2013-06-09 09:23:00,
2013-06-09 02:28:00,49.6,45.6,29.07,SE,135,1.8,1.8,86,0.00,CLR,OVC,0.00,WeatherDisplay:10.37,2013-06-09 09:28:00,
2013-06-09 02:33:00,49.6,45.6,29.06,SSE,158,2.3,2.3,86,0.00,CLR,OVC,0.00,WeatherDisplay:10.37,2013-06-09 09:33:00,
2013-06-09 02:38:00,49.5,45.1,29.06,WSW,248,2.3,2.3,85,0.00,CLR,OVC,0.00,WeatherDisplay:10.37,2013-06-09 09:38:00,
2013-06-09 02:43:00,49.3,45.0,29.06,West,270,2.2,2.2,85,0.00,CLR,OVC,0.00,WeatherDisplay:10.37,2013-06-09 09:43:00,
2013-06-09 02:48:00,49.3,45.0,29.06,SW,225,2.4,2.4,85,0.00,CLR,OVC,0.00,WeatherDisplay:10.37,2013-06-09 09:48:00,
2013-06-09 02:53:00,49.1,44.8,29.06,SSE,158,2.3,2.3,85,0.00,CLR,OVC,0.00,WeatherDisplay:10.37,2013-06-09 09:53:00,
2013-06-09 02:58:00,49.1,44.8,29.06,NW,315,2.3,2.3,85,0.00,CLR,OVC,0.00,WeatherDisplay:10.37,2013-06-09 09:58:00,
2013-06-09 03:03:00,48.9,44.6,29.06,ESE,112,2.3,2.3,85,0.00,CLR,OVC,0.00,WeatherDisplay:10.37,2013-06-09 10:03:00,
2013-06-09 03:08:00,48.7,44.4,29.06,South,180,2.3,2.3,85,0.00,CLR,OVC,0.00,WeatherDisplay:10.37,2013-06-09 10:08:00,
2013-06-09 03:13:00,48.6,44.3,29.06,SW,225,1.6,1.6,85,0.00,CLR,OVC,0.00,WeatherDisplay:10.37,2013-06-09 10:13:00,
2013-06-09 03:18:00,48.6,44.3,29.05,SSW,202,2.3,2.3,85,0.00,CLR,OVC,0.00,WeatherDisplay:10.37,2013-06-09 10:18:00,
2013-06-09 03:23:00,48.6,44.3,29.06,South,180,1.8,1.8,85,0.00,CLR,OVC,0.00,WeatherDisplay:10.37,2013-06-09 10:23:00,
2013-06-09 03:28:00,48.6,44.6,29.05,East,90,2.4,2.4,86,0.00,CLR,OVC,0.00,WeatherDisplay:10.37,2013-06-09 10:28:00,
2013-06-09 03:33:00,48.7,44.7,29.06,SSE,158,2.3,2.3,86,0.00,CLR,OVC,0.00,WeatherDisplay:10.37,2013-06-09 10:33:00,
2013-06-09 03:38:00,48.9,44.6,29.06,SSE,158,1.6,1.6,85,0.00,CLR,OVC,0.00,WeatherDisplay:10.37,2013-06-09 10:38:00,
2013-06-09 03:43:00,49.1,44.8,29.05,WSW,248,1.2,1.8,85,0.00,CLR,OVC,0.00,WeatherDisplay:10.37,2013-06-09 10:43:00,
2013-06-09 03:48:00,49.1,44.8,29.05,South,180,2.3,2.3,85,0.00,CLR,OVC,0.00,WeatherDisplay:10.37,2013-06-09 10:48:00,
2013-06-09 03:53:00,49.3,45.0,29.05,NW,315,2.3,2.3,85,0.00,CLR,OVC,0.00,WeatherDisplay:10.37,2013-06-09 10:53:00,
2013-06-09 03:58:00,49.3,45.0,29.06,West,270,2.4,2.4,85,0.00,CLR,OVC,0.00,WeatherDisplay:10.37,2013-06-09 10:58:00,
2013-06-09 04:03:00,49.3,45.0,29.05,WSW,248,1.8,1.8,85,0.00,CLR,OVC,0.00,WeatherDisplay:10.37,2013-06-09 11:03:00,
2013-06-09 04:09:00,49.3,45.0,29.06,North,0,1.6,1.6,85,0.00,CLR,OVC,0.00,WeatherDisplay:10.37,2013-06-09 11:09:00,
2013-06-09 04:14:00,49.3,45.0,29.05,SW,225,2.3,2.3,85,0.00,CLR,OVC,0.00,WeatherDisplay:10.37,2013-06-09 11:14:00,
2013-06-09 04:19:00,49.3,44.6,29.05,ESE,112,2.3,2.3,84,0.00,CLR,OVC,0.00,WeatherDisplay:10.37,2013-06-09 11:19:00,
2013-06-09 04:24:00,49.3,45.0,29.05,East,90,3.5,3.5,85,0.00,CLR,OVC,0.00,WeatherDisplay:10.37,2013-06-09 11:24:00,
2013-06-09 04:29:00,49.3,44.6,29.05,WSW,248,2.3,2.3,84,0.00,CLR,OVC,0.00,WeatherDisplay:10.37,2013-06-09 11:29:00,
2013-06-09 04:34:00,49.5,44.8,29.05,SSW,202,2.3,2.3,84,0.00,CLR,OVC,0.00,WeatherDisplay:10.37,2013-06-09 11:34:00,
2013-06-09 04:39:00,49.3,44.6,29.05,North,0,2.3,2.3,84,0.00,CLR,OVC,0.00,WeatherDisplay:10.37,2013-06-09 11:39:00,
2013-06-09 04:44:00,49.3,44.6,29.05,WSW,248,3.5,3.5,84,0.00,CLR,OVC,0.00,WeatherDisplay:10.37,2013-06-09 11:44:00,
2013-06-09 04:49:00,49.3,44.3,29.05,SSE,158,2.3,2.3,83,0.00,CLR,OVC,0.00,WeatherDisplay:10.37,2013-06-09 11:49:00,
2013-06-09 04:54:00,49.3,44.6,29.05,East,90,2.3,2.3,84,0.00,CLR,OVC,0.00,WeatherDisplay:10.37,2013-06-09 11:54:00,
2013-06-09 04:59:00,49.3,44.3,29.05,SE,135,1.8,1.8,83,0.00,CLR,OVC,0.00,WeatherDisplay:10.37,2013-06-09 11:59:00,
2013-06-09 05:04:00,49.3,44.3,29.05,SSW,202,2.3,2.3,83,0.00,CLR,OVC,0.00,WeatherDisplay:10.37,2013-06-09 12:04:00,
2013-06-09 05:09:00,49.3,44.3,29.05,SE,135,4.6,4.6,83,0.00,CLR,OVC,0.00,WeatherDisplay:10.37,2013-06-09 12:09:00,
2013-06-09 05:14:00,49.3,44.3,29.05,SSW,202,2.3,2.3,83,0.00,CLR,OVC,0.00,WeatherDisplay:10.37,2013-06-09 12:14:00,
2013-06-09 05:19:00,49.3,44.6,29.05,WNW,292,4.0,4.0,84,0.00,CLR,OVC,0.00,WeatherDisplay:10.37,2013-06-09 12:19:00,
2013-06-09 05:24:00,49.3,44.3,29.05,NE,45,2.3,2.3,83,0.00,CLR,OVC,0.00,WeatherDisplay:10.37,2013-06-09 12:24:00,
2013-06-09 05:29:00,49.3,44.3,29.05,SW,225,2.3,2.3,83,0.00,CLR,OVC,0.00,WeatherDisplay:10.37,2013-06-09 12:29:00,
2013-06-09 05:34:00,49.3,44.3,29.05,SW,225,4.6,4.6,83,0.00,CLR,OVC,0.00,WeatherDisplay:10.37,2013-06-09 12:34:00,
2013-06-09 05:39:00,49.3,44.3,29.06,SW,225,2.3,2.3,83,0.00,CLR,OVC,0.00,WeatherDisplay:10.37,2013-06-09 12:39:00,
2013-06-09 05:44:00,49.3,44.3,29.05,WSW,248,2.3,2.3,83,0.00,CLR,OVC,0.00,WeatherDisplay:10.37,2013-06-09 12:44:00,
2013-06-09 05:49:00,49.3,44.3,29.05,East,90,2.3,2.3,83,0.00,CLR,OVC,0.00,WeatherDisplay:10.37,2013-06-09 12:49:00,
2013-06-09 05:54:00,49.3,44.6,29.05,WSW,248,1.2,1.2,84,0.00,CLR,OVC,0.00,WeatherDisplay:10.37,2013-06-09 12:54:00,
2013-06-09 05:59:00,49.3,44.6,29.06,SW,225,1.2,1.2,84,0.00,CLR,OVC,0.00,WeatherDisplay:10.37,2013-06-09 12:59:00,
2013-06-09 06:04:00,49.5,44.8,29.06,SSW,202,1.2,1.2,84,0.00,CLR,OVC,0.00,WeatherDisplay:10.37,2013-06-09 13:04:00,
2013-06-09 06:09:00,49.6,45.0,29.06,WNW,292,2.2,2.2,84,0.00,CLR,OVC,0.00,WeatherDisplay:10.37,2013-06-09 13:09:00,
2013-06-09 06:14:00,49.6,44.7,29.06,NE,45,2.3,2.3,83,0.00,CLR,OVC,0.00,WeatherDisplay:10.37,2013-06-09 13:14:00,
2013-06-09 06:19:00,49.6,44.7,29.06,South,180,0.9,0.9,83,0.00,CLR,OVC,0.00,WeatherDisplay:10.37,2013-06-09 13:19:00,
2013-06-09 06:24:00,49.8,44.9,29.06,SE,135,1.2,1.2,83,0.00,CLR,OVC,0.00,WeatherDisplay:10.37,2013-06-09 13:24:00,
2013-06-09 06:29:00,50.0,45.0,29.06,South,180,2.3,2.3,83,0.00,CLR,OVC,0.00,WeatherDisplay:10.37,2013-06-09 13:29:00,
2013-06-09 06:34:00,50.0,44.7,29.06,SSE,158,1.8,1.8,82,0.00,CLR,OVC,0.00,WeatherDisplay:10.37,2013-06-09 13:34:00,
2013-06-09 06:39:00,50.2,45.2,29.06,WSW,248,2.3,2.4,83,0.00,CLR,OVC,0.00,WeatherDisplay:10.37,2013-06-09 13:39:00,
2013-06-09 06:44:00,50.2,44.9,29.06,SSW,202,2.3,2.3,82,0.00,CLR,OVC,0.00,WeatherDisplay:10.37,2013-06-09 13:44:00,
2013-06-09 06:49:00,50.4,45.1,29.06,West,270,2.3,2.3,82,0.00,CLR,OVC,0.00,WeatherDisplay:10.37,2013-06-09 13:49:00,
2013-06-09 06:54:00,50.4,45.1,29.06,WNW,292,3.1,3.1,82,0.00,CLR,OVC,0.00,WeatherDisplay:10.37,2013-06-09 13:54:00,
2013-06-09 06:59:00,50.4,45.1,29.06,NW,315,3.5,3.5,82,0.00,CLR,OVC,0.00,WeatherDisplay:10.37,2013-06-09 13:59:00,
2013-06-09 07:04:00,50.5,45.2,29.06,WNW,292,2.2,2.2,82,0.00,CLR,OVC,0.00,WeatherDisplay:10.37,2013-06-09 14:04:00,
2013-06-09 07:09:00,50.5,45.2,29.06,SSW,202,2.3,2.3,82,0.00,CLR,OVC,0.00,WeatherDisplay:10.37,2013-06-09 14:09:00,
2013-06-09 07:14:00,50.7,45.4,29.06,SE,135,1.2,1.4,82,0.00,CLR,OVC,0.00,WeatherDisplay:10.37,2013-06-09 14:14:00,
2013-06-09 07:19:00,51.1,45.5,29.06,NW,315,2.3,2.3,81,0.00,CLR,OVC,0.00,WeatherDisplay:10.37,2013-06-09 14:19:00,
2013-06-09 07:24:00,51.3,45.3,29.06,West,270,3.5,3.5,80,0.00,CLR,OVC,0.00,WeatherDisplay:10.37,2013-06-09 14:24:00,
2013-06-09 07:29:00,51.4,45.5,29.06,SW,225,3.5,3.5,80,0.00,CLR,OVC,0.00,WeatherDisplay:10.37,2013-06-09 14:29:00,
2013-06-09 07:34:00,51.6,45.7,29.06,SW,225,1.2,2.0,80,0.00,CLR,OVC,0.00,WeatherDisplay:10.37,2013-06-09 14:34:00,
2013-06-09 07:39:00,52.0,45.7,29.06,NNE,22,2.3,2.3,79,0.00,CLR,OVC,0.00,WeatherDisplay:10.37,2013-06-09 14:39:00,
2013-06-09 07:44:00,52.2,45.5,29.06,SSE,158,1.4,1.4,78,0.00,CLR,OVC,0.00,WeatherDisplay:10.37,2013-06-09 14:44:00,
2013-06-09 07:49:00,52.7,46.0,29.06,SSW,202,4.6,4.6,78,0.00,CLR,OVC,0.00,WeatherDisplay:10.37,2013-06-09 14:49:00,
2013-06-09 07:54:00,52.7,46.0,29.07,SW,225,2.3,2.3,78,0.00,CLR,OVC,0.00,WeatherDisplay:10.37,2013-06-09 14:54:00,
2013-06-09 07:59:00,52.9,45.9,29.07,SW,225,3.5,3.5,77,0.00,CLR,OVC,0.00,WeatherDisplay:10.37,2013-06-09 14:59:00,
2013-06-09 08:04:00,53.1,45.7,29.07,SE,135,3.5,3.5,76,0.00,CLR,OVC,0.00,WeatherDisplay:10.37,2013-06-09 15:04:00,
2013-06-09 08:09:00,53.2,45.9,29.07,North,0,2.3,2.3,76,0.00,CLR,OVC,0.00,WeatherDisplay:10.37,2013-06-09 15:09:00,
2013-06-09 08:14:00,53.4,46.0,29.07,WSW,248,3.5,3.5,76,0.00,CLR,OVC,0.00,WeatherDisplay:10.37,2013-06-09 15:14:00,
2013-06-09 08:19:00,53.8,46.4,29.07,SW,225,3.5,3.5,76,0.00,CLR,OVC,0.00,WeatherDisplay:10.37,2013-06-09 15:19:00,
2013-06-09 08:24:00,54.0,46.2,29.07,WSW,248,2.9,2.9,75,0.00,CLR,OVC,0.00,WeatherDisplay:10.37,2013-06-09 15:24:00,
2013-06-09 08:29:00,54.5,47.1,29.08,WSW,248,1.8,1.8,76,0.00,CLR,OVC,0.00,WeatherDisplay:10.37,2013-06-09 15:29:00,
2013-06-09 08:34:00,55.2,47.4,29.08,WSW,248,2.3,2.3,75,0.00,CLR,OVC,0.00,WeatherDisplay:10.37,2013-06-09 15:34:00,
2013-06-09 08:39:00,56.3,48.5,29.08,SW,225,1.4,1.4,75,0.00,CLR,OVC,0.00,WeatherDisplay:10.37,2013-06-09 15:39:00,
2013-06-09 08:44:00,56.8,48.3,29.08,NE,45,2.3,2.3,73,0.00,CLR,OVC,0.00,WeatherDisplay:10.37,2013-06-09 15:44:00,
2013-06-09 08:49:00,56.5,47.9,29.07,SE,135,1.2,1.2,73,0.00,CLR,OVC,0.00,WeatherDisplay:10.37,2013-06-09 15:49:00,
2013-06-09 08:54:00,56.5,47.6,29.08,SW,225,2.3,2.3,72,0.00,CLR,OVC,0.00,WeatherDisplay:10.37,2013-06-09 15:54:00,
2013-06-09 08:59:00,56.3,47.4,29.08,South,180,2.3,2.3,72,0.00,CLR,OVC,0.00,WeatherDisplay:10.37,2013-06-09 15:59:00,
2013-06-09 09:04:00,56.5,47.6,29.08,ENE,68,2.3,2.3,72,0.00,CLR,OVC,0.00,WeatherDisplay:10.37,2013-06-09 16:04:00,
2013-06-09 09:09:00,56.3,47.4,29.08,SW,225,2.3,0.0,72,0.00,CLR,OVC,0.00,WeatherDisplay:10.37,2013-06-09 16:09:00,
2013-06-09 09:14:00,56.5,47.6,29.08,SE,135,2.3,2.3,72,0.00,CLR,OVC,0.00,WeatherDisplay:10.37,2013-06-09 16:14:00,
2013-06-09 09:19:00,56.5,47.2,29.08,NW,315,3.5,3.5,71,0.00,CLR,OVC,0.00,WeatherDisplay:10.37,2013-06-09 16:19:00,
2013-06-09 09:24:00,56.7,47.7,29.08,SW,225,1.2,1.2,72,0.00,CLR,OVC,0.00,WeatherDisplay:10.37,2013-06-09 16:24:00,
2013-06-09 09:29:00,57.2,47.9,29.08,South,180,1.2,1.2,71,0.00,CLR,OVC,0.00,WeatherDisplay:10.37,2013-06-09 16:29:00,
2013-06-09 09:34:00,58.3,48.2,29.08,West,270,3.5,3.5,69,0.00,CLR,OVC,0.00,WeatherDisplay:10.37,2013-06-09 16:34:00,
2013-06-09 09:39:00,59.4,49.2,29.08,ENE,68,2.3,2.3,69,0.00,CLR,OVC,0.00,WeatherDisplay:10.37,2013-06-09 16:39:00,
2013-06-09 09:44:00,59.5,48.6,29.08,WNW,292,2.3,2.3,67,0.00,CLR,OVC,0.00,WeatherDisplay:10.37,2013-06-09 16:44:00,
2013-06-09 09:50:00,60.4,49.4,29.08,WNW,292,2.3,2.3,67,0.00,CLR,OVC,0.00,WeatherDisplay:10.37,2013-06-09 16:50:00,
2013-06-09 09:55:00,61.9,50.4,29.08,South,180,2.3,2.3,66,0.00,CLR,OVC,0.00,WeatherDisplay:10.37,2013-06-09 16:55:00,
2013-06-09 10:00:00,62.8,51.2,29.07,SSE,158,2.3,2.3,66,0.00,CLR,OVC,0.00,WeatherDisplay:10.37,2013-06-09 17:00:00,
2013-06-09 10:05:00,63.1,50.3,29.07,SSE,158,2.3,2.3,63,0.00,CLR,OVC,0.00,WeatherDisplay:10.37,2013-06-09 17:05:00,
2013-06-09 10:10:00,63.7,50.4,29.07,NW,315,3.5,3.5,62,0.00,CLR,OVC,0.00,WeatherDisplay:10.37,2013-06-09 17:10:00,
2013-06-09 10:15:00,64.2,49.6,29.07,ESE,112,4.6,4.6,59,0.00,CLR,OVC,0.00,WeatherDisplay:10.37,2013-06-09 17:15:00,
2013-06-09 10:20:00,64.8,50.5,29.07,ESE,112,2.3,2.3,60,0.00,CLR,OVC,0.00,WeatherDisplay:10.37,2013-06-09 17:20:00,
2013-06-09 10:25:00,66.0,50.3,29.07,North,0,2.3,2.4,57,0.00,CLR,OVC,0.00,WeatherDisplay:10.37,2013-06-09 17:25:00,
2013-06-09 10:30:00,67.6,50.4,29.07,West,270,4.6,4.6,54,0.00,CLR,OVC,0.00,WeatherDisplay:10.37,2013-06-09 17:30:00,
2013-06-09 10:35:00,68.2,50.4,29.07,NW,315,3.5,3.5,53,0.00,CLR,OVC,0.00,WeatherDisplay:10.37,2013-06-09 17:35:00,
2013-06-09 10:40:00,67.3,50.1,29.07,WSW,248,2.3,2.3,54,0.00,CLR,OVC,0.00,WeatherDisplay:10.37,2013-06-09 17:40:00,
2013-06-09 10:45:00,66.7,50.1,29.07,West,270,3.5,3.5,55,0.00,CLR,OVC,0.00,WeatherDisplay:10.37,2013-06-09 17:45:00,
2013-06-09 10:50:00,67.1,50.4,29.07,ESE,112,2.3,2.3,55,0.00,CLR,OVC,0.00,WeatherDisplay:10.37,2013-06-09 17:50:00,
2013-06-09 10:55:00,68.0,50.2,29.07,West,270,4.6,4.6,53,0.00,CLR,OVC,0.00,WeatherDisplay:10.37,2013-06-09 17:55:00,
2013-06-09 11:00:00,67.6,50.4,29.07,WSW,248,2.3,2.3,54,0.00,CLR,OVC,0.00,WeatherDisplay:10.37,2013-06-09 18:00:00,
2013-06-09 11:05:00,68.0,49.2,29.07,WNW,292,4.6,4.6,51,0.00,CLR,OVC,0.00,WeatherDisplay:10.37,2013-06-09 18:05:00,
2013-06-09 11:10:00,68.5,51.2,29.07,SSW,202,1.2,1.2,54,0.00,CLR,OVC,0.00,WeatherDisplay:10.37,2013-06-09 18:10:00,
2013-06-09 11:15:00,69.4,50.5,29.07,WNW,292,5.8,5.8,51,0.00,CLR,OVC,0.00,WeatherDisplay:10.37,2013-06-09 18:15:00,
2013-06-09 11:20:00,68.9,49.5,29.07,WSW,248,2.3,2.3,50,0.00,CLR,OVC,0.00,WeatherDisplay:10.37,2013-06-09 18:20:00,
2013-06-09 11:25:00,68.4,49.5,29.08,West,270,2.3,2.3,51,0.00,CLR,OVC,0.00,WeatherDisplay:10.37,2013-06-09 18:25:00,
2013-06-09 11:30:00,68.5,49.7,29.07,WSW,248,4.6,4.6,51,0.00,CLR,OVC,0.00,WeatherDisplay:10.37,2013-06-09 18:30:00,
2013-06-09 11:35:00,69.1,50.2,29.07,SSW,202,3.5,3.5,51,0.00,CLR,OVC,0.00,WeatherDisplay:10.37,2013-06-09 18:35:00,
2013-06-09 11:40:00,69.4,49.4,29.08,East,90,4.6,4.6,49,0.00,CLR,OVC,0.00,WeatherDisplay:10.37,2013-06-09 18:40:00,
2013-06-09 11:45:00,69.1,49.7,29.08,NNE,22,1.4,1.4,50,0.00,CLR,OVC,0.00,WeatherDisplay:10.37,2013-06-09 18:45:00,
2013-06-09 11:50:00,70.0,51.0,29.07,SSW,202,2.3,2.3,51,0.00,CLR,OVC,0.00,WeatherDisplay:10.37,2013-06-09 18:50:00,
2013-06-09 11:55:00,70.5,51.0,29.07,SW,225,5.8,5.8,50,0.00,CLR,OVC,0.00,WeatherDisplay:10.37,2013-06-09 18:55:00,
2013-06-09 12:00:00,70.9,51.3,29.08,SW,225,3.5,3.5,50,0.00,CLR,OVC,0.00,WeatherDisplay:10.37,2013-06-09 19:00:00,
2013-06-09 12:05:00,71.2,51.6,29.07,SW,225,3.5,3.5,50,0.00,CLR,OVC,0.00,WeatherDisplay:10.37,2013-06-09 19:05:00,
2013-06-09 12:10:00,70.5,49.3,29.07,NE,45,4.6,4.6,47,0.00,CLR,OVC,0.00,WeatherDisplay:10.37,2013-06-09 19:10:00,
2013-06-09 12:15:00,68.7,48.2,29.07,WNW,292,5.8,5.8,48,0.00,CLR,OVC,0.00,WeatherDisplay:10.37,2013-06-09 19:15:00,
2013-06-09 12:20:00,68.9,50.0,29.07,West,270,3.8,3.8,51,0.00,CLR,OVC,0.00,WeatherDisplay:10.37,2013-06-09 19:20:00,
2013-06-09 12:25:00,69.6,50.7,29.07,SW,225,2.3,2.3,51,0.00,CLR,OVC,0.00,WeatherDisplay:10.37,2013-06-09 19:25:00,
2013-06-09 12:30:00,70.2,50.6,29.07,SW,225,2.3,2.3,50,0.00,CLR,OVC,0.00,WeatherDisplay:10.37,2013-06-09 19:30:00,
2013-06-09 12:35:00,71.2,50.0,29.07,ENE,68,4.6,4.6,47,0.00,CLR,OVC,0.00,WeatherDisplay:10.37,2013-06-09 19:35:00,
2013-06-09 12:40:00,71.1,48.6,29.07,West,270,7.6,7.6,45,0.00,CLR,OVC,0.00,WeatherDisplay:10.37,2013-06-09 19:40:00,
2013-06-09 12:45:00,70.2,49.0,29.06,NW,315,2.3,2.3,47,0.00,CLR,OVC,0.00,WeatherDisplay:10.37,2013-06-09 19:45:00,
2013-06-09 12:50:00,70.9,50.2,29.06,West,270,1.2,2.9,48,0.00,CLR,OVC,0.00,WeatherDisplay:10.37,2013-06-09 19:50:00,
2013-06-09 12:55:00,70.9,50.2,29.06,NW,315,3.1,3.1,48,0.00,CLR,OVC,0.00,WeatherDisplay:10.37,2013-06-09 19:55:00,
2013-06-09 13:00:00,70.9,50.2,29.06,SW,225,2.6,2.6,48,0.00,CLR,OVC,0.00,WeatherDisplay:10.37,2013-06-09 20:00:00,
2013-06-09 13:05:00,70.7,48.9,29.06,SSE,158,6.9,6.9,46,0.00,CLR,OVC,0.00,WeatherDisplay:10.37,2013-06-09 20:05:00,
2013-06-09 13:10:00,70.9,50.2,29.06,East,90,2.3,2.3,48,0.00,CLR,OVC,0.00,WeatherDisplay:10.37,2013-06-09 20:10:00,
2013-06-09 13:15:00,71.2,50.0,29.05,WSW,248,3.5,3.5,47,0.00,CLR,OVC,0.00,WeatherDisplay:10.37,2013-06-09 20:15:00,
2013-06-09 13:20:00,72.0,50.6,29.05,West,270,5.8,5.8,47,0.00,CLR,OVC,0.00,WeatherDisplay:10.37,2013-06-09 20:20:00,
2013-06-09 13:25:00,73.0,50.4,29.05,WSW,248,3.5,3.5,45,0.00,CLR,OVC,0.00,WeatherDisplay:10.37,2013-06-09 20:25:00,
2013-06-09 13:30:00,73.6,50.9,29.05,SE,135,3.5,3.5,45,0.00,CLR,OVC,0.00,WeatherDisplay:10.37,2013-06-09 20:30:00,
2013-06-09 13:35:00,73.8,50.5,29.05,WSW,248,3.5,3.5,44,0.00,CLR,OVC,0.00,WeatherDisplay:10.37,2013-06-09 20:35:00,
2013-06-09 13:40:00,73.8,50.5,29.05,SSW,202,3.5,3.5,44,0.00,CLR,OVC,0.00,WeatherDisplay:10.37,2013-06-09 20:40:00,
2013-06-09 13:45:00,73.4,50.2,29.05,SW,225,4.6,4.6,44,0.00,CLR,OVC,0.00,WeatherDisplay:10.37,2013-06-09 20:45:00,
2013-06-09 13:50:00,73.2,50.0,29.05,SSE,158,4.6,4.6,44,0.00,CLR,OVC,0.00,WeatherDisplay:10.37,2013-06-09 20:50:00,
2013-06-09 13:55:00,74.1,50.2,29.05,West,270,3.1,3.1,43,0.00,CLR,OVC,0.00,WeatherDisplay:10.37,2013-06-09 20:55:00,
2013-06-09 14:00:00,73.8,49.2,29.04,SW,225,4.6,4.6,42,0.00,CLR,OVC,0.00,WeatherDisplay:10.37,2013-06-09 21:00:00,
2013-06-09 14:05:00,74.1,50.8,29.04,SSE,158,3.5,3.5,44,0.00,CLR,OVC,0.00,WeatherDisplay:10.37,2013-06-09 21:05:00,
2013-06-09 14:10:00,74.3,49.1,29.04,SSW,202,3.6,3.6,41,0.00,CLR,OVC,0.00,WeatherDisplay:10.37,2013-06-09 21:10:00,
2013-06-09 14:15:00,74.1,49.6,29.04,SW,225,3.5,3.5,42,0.00,CLR,OVC,0.00,WeatherDisplay:10.37,2013-06-09 21:15:00,
2013-06-09 14:20:00,74.1,49.6,29.04,WSW,248,2.3,2.3,42,0.00,CLR,OVC,0.00,WeatherDisplay:10.37,2013-06-09 21:20:00,
2013-06-09 14:25:00,74.1,49.6,29.04,WSW,248,2.3,2.3,42,0.00,CLR,OVC,0.00,WeatherDisplay:10.37,2013-06-09 21:25:00,
2013-06-09 14:30:00,74.8,50.2,29.04,SW,225,2.3,2.3,42,0.00,CLR,OVC,0.00,WeatherDisplay:10.37,2013-06-09 21:30:00,
2013-06-09 14:35:00,75.7,50.4,29.03,SW,225,3.1,3.1,41,0.00,CLR,OVC,0.00,WeatherDisplay:10.37,2013-06-09 21:35:00,
2013-06-09 14:40:00,75.9,49.2,29.03,WNW,292,6.9,6.9,39,0.00,CLR,OVC,0.00,WeatherDisplay:10.37,2013-06-09 21:40:00,
2013-06-09 14:46:00,74.7,49.4,29.03,South,180,2.4,2.4,41,0.00,CLR,OVC,0.00,WeatherDisplay:10.37,2013-06-09 21:46:00,
2013-06-09 14:51:00,74.8,48.9,29.03,NW,315,4.6,4.6,40,0.00,CLR,OVC,0.00,WeatherDisplay:10.37,2013-06-09 21:51:00,
2013-06-09 14:56:00,74.3,49.1,29.03,West,270,4.6,4.6,41,0.00,CLR,OVC,0.00,WeatherDisplay:10.37,2013-06-09 21:56:00,
2013-06-09 15:01:00,74.1,48.2,29.03,NNE,22,3.5,3.5,40,0.00,CLR,OVC,0.00,WeatherDisplay:10.37,2013-06-09 22:01:00,
2013-06-09 15:06:00,74.1,48.9,29.03,WSW,248,3.5,3.5,41,0.00,CLR,OVC,0.00,WeatherDisplay:10.37,2013-06-09 22:06:00,
2013-06-09 15:11:00,73.8,48.6,29.03,SSW,202,2.3,2.3,41,0.00,CLR,OVC,0.00,WeatherDisplay:10.37,2013-06-09 22:11:00,
2013-06-09 15:16:00,74.5,49.2,29.03,SW,225,2.3,2.3,41,0.00,CLR,OVC,0.00,WeatherDisplay:10.37,2013-06-09 22:16:00,
2013-06-09 15:21:00,74.8,50.8,29.02,WSW,248,4.6,4.6,43,0.00,CLR,OVC,0.00,WeatherDisplay:10.37,2013-06-09 22:21:00,
2013-06-09 15:26:00,75.2,49.9,29.02,South,180,2.3,2.3,41,0.00,CLR,OVC,0.00,WeatherDisplay:10.37,2013-06-09 22:26:00,
2013-06-09 15:31:00,75.9,50.5,29.02,West,270,3.5,3.5,41,0.00,CLR,OVC,0.00,WeatherDisplay:10.37,2013-06-09 22:31:00,
2013-06-09 15:36:00,76.5,51.0,29.03,West,270,2.3,2.3,41,0.00,CLR,OVC,0.00,WeatherDisplay:10.37,2013-06-09 22:36:00,
2013-06-09 15:41:00,76.6,51.2,29.02,WSW,248,2.3,2.3,41,0.00,CLR,OVC,0.00,WeatherDisplay:10.37,2013-06-09 22:41:00,
2013-06-09 15:46:00,77.4,50.5,29.02,WSW,248,6.9,6.9,39,0.00,CLR,OVC,0.00,WeatherDisplay:10.37,2013-06-09 22:46:00,
2013-06-09 15:51:00,77.0,50.8,29.02,West,270,3.5,3.5,40,0.00,CLR,OVC,0.00,WeatherDisplay:10.37,2013-06-09 22:51:00,
2013-06-09 15:56:00,77.0,50.8,29.02,WSW,248,2.3,2.3,40,0.00,CLR,OVC,0.00,WeatherDisplay:10.37,2013-06-09 22:56:00,
2013-06-09 16:01:00,76.3,50.8,29.02,WSW,248,3.5,3.5,41,0.00,CLR,OVC,0.00,WeatherDisplay:10.37,2013-06-09 23:01:00,
2013-06-09 16:06:00,75.7,50.4,29.02,ESE,112,5.8,5.8,41,0.00,CLR,OVC,0.00,WeatherDisplay:10.37,2013-06-09 23:06:00,
2013-06-09 16:11:00,75.7,50.4,29.02,WSW,248,4.6,4.6,41,0.00,CLR,OVC,0.00,WeatherDisplay:10.37,2013-06-09 23:11:00,
2013-06-09 16:16:00,75.9,50.5,29.02,WNW,292,3.5,3.5,41,0.00,CLR,OVC,0.00,WeatherDisplay:10.37,2013-06-09 23:16:00,
2013-06-09 16:21:00,76.1,50.7,29.02,West,270,4.6,4.6,41,0.00,CLR,OVC,0.00,WeatherDisplay:10.37,2013-06-09 23:21:00,
2013-06-09 16:26:00,76.1,50.7,29.01,SW,225,4.7,4.7,41,0.00,CLR,OVC,0.00,WeatherDisplay:10.37,2013-06-09 23:26:00,
2013-06-09 16:32:00,75.6,50.9,29.01,West,270,4.0,4.0,42,0.00,CLR,OVC,0.00,WeatherDisplay:10.37,2013-06-09 23:32:00,
2013-06-09 16:37:00,76.3,50.8,29.01,NE,45,4.6,4.6,41,0.00,CLR,OVC,0.00,WeatherDisplay:10.37,2013-06-09 23:37:00,
2013-06-09 16:42:00,77.2,51.7,29.02,WNW,292,4.0,4.0,41,0.00,CLR,OVC,0.00,WeatherDisplay:10.37,2013-06-09 23:42:00,
2013-06-09 16:47:00,77.4,51.1,29.01,West,270,5.8,5.8,40,0.00,CLR,OVC,0.00,WeatherDisplay:10.37,2013-06-09 23:47:00,
2013-06-09 16:52:00,77.2,50.3,29.01,SSW,202,4.6,4.6,39,0.00,CLR,OVC,0.00,WeatherDisplay:10.37,2013-06-09 23:52:00,
2013-06-09 16:57:00,77.2,50.3,29.01,SW,225,4.6,4.6,39,0.00,CLR,OVC,0.00,WeatherDisplay:10.37,2013-06-09 23:57:00,
2013-06-09 17:02:00,76.5,50.3,29.01,NNW,338,3.5,3.5,40,0.00,CLR,OVC,0.00,WeatherDisplay:10.37,2013-06-10 00:02:00,
2013-06-09 17:07:00,76.3,50.2,29.01,West,270,5.8,5.8,40,0.00,CLR,OVC,0.00,WeatherDisplay:10.37,2013-06-10 00:07:00,
2013-06-09 17:12:00,75.6,48.9,29.01,WNW,292,5.8,5.8,39,0.00,CLR,OVC,0.00,WeatherDisplay:10.37,2013-06-10 00:12:00,
2013-06-09 17:17:00,75.9,50.5,29.01,SE,135,3.1,3.1,41,0.00,CLR,OVC,0.00,WeatherDisplay:10.37,2013-06-10 00:17:00,
2013-06-09 17:22:00,77.0,50.1,29.01,WNW,292,4.6,4.6,39,0.00,CLR,OVC,0.00,WeatherDisplay:10.37,2013-06-10 00:22:00,
2013-06-09 17:27:00,76.1,50.0,29.01,WNW,292,4.6,4.6,40,0.00,CLR,OVC,0.00,WeatherDisplay:10.37,2013-06-10 00:27:00,
2013-06-09 17:32:00,76.3,50.2,29.01,SSE,158,4.6,4.6,40,0.00,CLR,OVC,0.00,WeatherDisplay:10.37,2013-06-10 00:32:00,
2013-06-09 17:37:00,77.4,50.5,29.01,ESE,112,6.9,6.9,39,0.00,CLR,OVC,0.00,WeatherDisplay:10.37,2013-06-10 00:37:00,
2013-06-09 17:42:00,77.2,50.3,29.00,SE,135,5.8,5.8,39,0.00,CLR,OVC,0.00,WeatherDisplay:10.37,2013-06-10 00:42:00,
2013-06-09 17:47:00,77.9,50.9,29.01,NNW,338,2.3,2.3,39,0.00,CLR,OVC,0.00,WeatherDisplay:10.37,2013-06-10 00:47:00,
2013-06-09 17:52:00,78.6,50.9,29.00,North,0,3.3,3.3,38,0.00,CLR,OVC,0.00,WeatherDisplay:10.37,2013-06-10 00:52:00,
2013-06-09 17:57:00,78.8,51.7,29.00,East,90,2.3,2.3,39,0.00,CLR,OVC,0.00,WeatherDisplay:10.37,2013-06-10 00:57:00,
2013-06-09 18:02:00,79.2,50.6,29.00,North,0,2.4,2.4,37,0.00,CLR,OVC,0.00,WeatherDisplay:10.37,2013-06-10 01:02:00,
2013-06-09 18:07:00,79.3,49.3,29.00,SW,225,5.4,5.4,35,0.00,CLR,OVC,0.00,WeatherDisplay:10.37,2013-06-10 01:07:00,
2013-06-09 18:12:00,78.1,49.7,29.00,West,270,2.3,2.3,37,0.00,CLR,OVC,0.00,WeatherDisplay:10.37,2013-06-10 01:12:00,
2013-06-09 18:17:00,77.5,49.9,29.00,SW,225,2.3,2.3,38,0.00,CLR,OVC,0.00,WeatherDisplay:10.37,2013-06-10 01:17:00,
2013-06-09 18:22:00,78.8,51.0,29.00,SW,225,2.3,2.3,38,0.00,CLR,OVC,0.00,WeatherDisplay:10.37,2013-06-10 01:22:00,
2013-06-09 18:28:00,79.2,50.6,29.00,East,90,2.3,2.3,37,0.00,CLR,OVC,0.00,WeatherDisplay:10.37,2013-06-10 01:28:00,
2013-06-09 18:33:00,78.4,50.0,29.00,ENE,68,3.5,3.5,37,0.00,CLR,OVC,0.00,WeatherDisplay:10.37,2013-06-10 01:33:00,
2013-06-09 18:38:00,77.0,49.4,29.00,WSW,248,3.5,3.5,38,0.00,CLR,OVC,0.00,WeatherDisplay:10.37,2013-06-10 01:38:00,
2013-06-09 18:43:00,75.2,47.8,28.99,SE,135,3.5,3.5,38,0.00,CLR,OVC,0.00,WeatherDisplay:10.37,2013-06-10 01:43:00,
2013-06-09 18:48:00,74.3,48.4,29.00,WSW,248,2.3,2.3,40,0.00,CLR,OVC,0.00,WeatherDisplay:10.37,2013-06-10 01:48:00,
2013-06-09 18:53:00,75.2,49.2,28.99,WNW,292,3.3,3.3,40,0.00,CLR,OVC,0.00,WeatherDisplay:10.37,2013-06-10 01:53:00,
2013-06-09 18:58:00,75.6,49.5,28.99,SE,135,2.3,2.3,40,0.00,CLR,OVC,0.00,WeatherDisplay:10.37,2013-06-10 01:58:00,
2013-06-09 19:03:00,75.9,49.2,28.99,NNE,22,2.3,2.3,39,0.00,CLR,OVC,0.00,WeatherDisplay:10.37,2013-06-10 02:03:00,
2013-06-09 19:08:00,75.9,49.2,29.00,SE,135,3.5,3.5,39,0.00,CLR,OVC,0.00,WeatherDisplay:10.37,2013-06-10 02:08:00,
2013-06-09 19:13:00,75.4,48.7,28.99,WSW,248,2.3,2.3,39,0.00,CLR,OVC,0.00,WeatherDisplay:10.37,2013-06-10 02:13:00,
2013-06-09 19:18:00,75.0,48.4,28.99,SW,225,2.3,2.3,39,0.00,CLR,OVC,0.00,WeatherDisplay:10.37,2013-06-10 02:18:00,
2013-06-09 19:23:00,73.8,47.9,28.99,South,180,2.4,2.4,40,0.00,CLR,OVC,0.00,WeatherDisplay:10.37,2013-06-10 02:23:00,
2013-06-09 19:28:00,72.5,47.5,28.99,South,180,2.3,2.3,41,0.00,CLR,OVC,0.00,WeatherDisplay:10.37,2013-06-10 02:28:00,
2013-06-09 19:33:00,72.0,47.6,28.99,ESE,112,2.3,2.3,42,0.00,CLR,OVC,0.00,WeatherDisplay:10.37,2013-06-10 02:33:00,
2013-06-09 19:38:00,71.4,47.1,28.99,North,0,5.8,5.8,42,0.00,CLR,OVC,0.00,WeatherDisplay:10.37,2013-06-10 02:38:00,
2013-06-09 19:43:00,70.3,46.8,28.99,WSW,248,2.6,2.6,43,0.00,CLR,OVC,0.00,WeatherDisplay:10.37,2013-06-10 02:43:00,
2013-06-09 19:48:00,69.3,47.0,28.99,SSE,158,2.3,2.3,45,0.00,CLR,OVC,0.00,WeatherDisplay:10.37,2013-06-10 02:48:00,
2013-06-09 19:53:00,68.9,46.7,29.00,East,90,4.6,4.6,45,0.00,CLR,OVC,0.00,WeatherDisplay:10.37,2013-06-10 02:53:00,
2013-06-09 19:58:00,68.0,45.3,29.00,SSW,202,4.6,4.6,44,0.00,CLR,OVC,0.00,WeatherDisplay:10.37,2013-06-10 02:58:00,
2013-06-09 20:03:00,68.0,45.9,28.99,SSE,158,3.5,3.5,45,0.00,CLR,OVC,0.00,WeatherDisplay:10.37,2013-06-10 03:03:00,
2013-06-09 20:08:00,67.5,45.4,28.99,SSE,158,3.5,3.5,45,0.00,CLR,OVC,0.00,WeatherDisplay:10.37,2013-06-10 03:08:00,
2013-06-09 20:13:00,66.6,45.1,28.99,SW,225,2.3,2.6,46,0.00,CLR,OVC,0.00,WeatherDisplay:10.37,2013-06-10 03:13:00,
2013-06-09 20:18:00,65.8,45.0,28.99,SW,225,2.3,2.3,47,0.00,CLR,OVC,0.00,WeatherDisplay:10.37,2013-06-10 03:18:00,
2013-06-09 20:23:00,64.8,44.6,28.99,WSW,248,2.3,2.3,48,0.00,CLR,OVC,0.00,WeatherDisplay:10.37,2013-06-10 03:23:00,
2013-06-09 20:28:00,63.7,44.2,28.99,South,180,1.4,1.4,49,0.00,CLR,OVC,0.00,WeatherDisplay:10.37,2013-06-10 03:28:00,
2013-06-09 20:33:00,63.1,44.2,28.99,NW,315,2.3,2.3,50,0.00,CLR,OVC,0.00,WeatherDisplay:10.37,2013-06-10 03:33:00,
2013-06-09 20:38:00,61.5,43.2,28.99,West,270,2.3,2.3,51,0.00,CLR,OVC,0.00,WeatherDisplay:10.37,2013-06-10 03:38:00,
2013-06-09 20:43:00,59.7,42.6,28.99,South,180,2.3,2.3,53,0.00,CLR,OVC,0.00,WeatherDisplay:10.37,2013-06-10 03:43:00,
2013-06-09 20:48:00,58.1,42.0,28.99,ESE,112,3.5,3.5,55,0.00,CLR,OVC,0.00,WeatherDisplay:10.37,2013-06-10 03:48:00,
2013-06-09 20:53:00,57.0,42.4,28.99,SW,225,4.6,4.6,58,0.00,CLR,OVC,0.00,WeatherDisplay:10.37,2013-06-10 03:53:00,
2013-06-09 20:58:00,56.3,42.1,28.99,SW,225,2.3,2.3,59,0.00,CLR,OVC,0.00,WeatherDisplay:10.37,2013-06-10 03:58:00,
2013-06-09 21:01:00,55.9,42.2,28.99,WSW,248,3.5,3.5,60,0.00,CLR,OVC,0.00,WeatherDisplay:10.37,2013-06-10 04:01:00,
2013-06-09 21:07:00,55.0,41.4,28.99,WSW,248,2.9,2.9,60,0.00,CLR,OVC,0.00,WeatherDisplay:10.37,2013-06-10 04:07:00,
2013-06-09 21:12:00,54.7,41.5,28.99,ESE,112,1.4,1.4,61,0.00,CLR,OVC,0.00,WeatherDisplay:10.37,2013-06-10 04:12:00,
2013-06-09 21:17:00,54.1,42.2,28.99,SE,135,4.6,4.6,64,0.00,CLR,OVC,0.00,WeatherDisplay:10.37,2013-06-10 04:17:00,
2013-06-09 21:22:00,53.6,41.7,28.99,NNE,22,3.5,3.5,64,0.00,CLR,OVC,0.00,WeatherDisplay:10.37,2013-06-10 04:22:00,
2013-06-09 21:27:00,53.2,41.4,28.99,SSW,202,3.5,3.5,64,0.00,CLR,OVC,0.00,WeatherDisplay:10.37,2013-06-10 04:27:00,
2013-06-09 21:32:00,52.9,41.0,28.99,SSE,158,2.3,2.3,64,0.00,CLR,OVC,0.00,WeatherDisplay:10.37,2013-06-10 04:32:00,
2013-06-09 21:37:00,52.5,41.5,28.99,NNE,22,4.6,4.6,66,0.00,CLR,OVC,0.00,WeatherDisplay:10.37,2013-06-10 04:37:00,
2013-06-09 21:42:00,52.2,41.5,28.99,West,270,5.8,5.8,67,0.00,CLR,OVC,0.00,WeatherDisplay:10.37,2013-06-10 04:42:00,
2013-06-09 21:47:00,52.0,41.4,28.99,ENE,68,2.3,2.3,67,0.00,CLR,OVC,0.00,WeatherDisplay:10.37,2013-06-10 04:47:00,
2013-06-09 21:52:00,51.6,41.4,28.99,NNE,22,3.3,3.3,68,0.00,CLR,OVC,0.00,WeatherDisplay:10.37,2013-06-10 04:52:00,
2013-06-09 21:57:00,51.4,41.2,28.99,South,180,2.0,2.0,68,0.00,CLR,OVC,0.00,WeatherDisplay:10.37,2013-06-10 04:57:00,
2013-06-09 22:02:00,51.3,41.1,28.99,ESE,112,2.3,2.3,68,0.00,CLR,OVC,0.00,WeatherDisplay:10.37,2013-06-10 05:02:00,
2013-06-09 22:07:00,50.9,41.1,29.00,North,0,2.3,2.3,69,0.00,CLR,OVC,0.00,WeatherDisplay:10.37,2013-06-10 05:07:00,
2013-06-09 22:12:00,50.7,41.3,29.00,East,90,2.3,2.3,70,0.00,CLR,OVC,0.00,WeatherDisplay:10.37,2013-06-10 05:12:00,
2013-06-09 22:17:00,50.5,41.5,29.00,WNW,292,3.5,3.5,71,0.00,CLR,OVC,0.00,WeatherDisplay:10.37,2013-06-10 05:17:00,
2013-06-09 22:22:00,50.2,41.5,29.00,SSW,202,3.5,3.5,72,0.00,CLR,OVC,0.00,WeatherDisplay:10.37,2013-06-10 05:22:00,
2013-06-09 22:27:00,50.0,41.3,29.00,NNW,338,2.3,2.3,72,0.00,CLR,OVC,0.00,WeatherDisplay:10.37,2013-06-10 05:27:00,
2013-06-09 22:32:00,50.0,41.7,29.00,WSW,248,2.3,2.3,73,0.00,CLR,OVC,0.00,WeatherDisplay:10.37,2013-06-10 05:32:00,
2013-06-09 22:37:00,49.6,41.0,29.00,SSW,202,1.2,1.2,72,0.00,CLR,OVC,0.00,WeatherDisplay:10.37,2013-06-10 05:37:00,
2013-06-09 22:42:00,49.5,41.2,29.00,SSE,158,3.5,3.5,73,0.00,CLR,OVC,0.00,WeatherDisplay:10.37,2013-06-10 05:42:00,
2013-06-09 22:47:00,49.3,41.7,29.00,SW,225,4.6,4.6,75,0.00,CLR,OVC,0.00,WeatherDisplay:10.37,2013-06-10 05:47:00,
2013-06-09 22:52:00,49.3,41.7,29.00,WSW,248,2.3,2.3,75,0.00,CLR,OVC,0.00,WeatherDisplay:10.37,2013-06-10 05:52:00,
2013-06-09 22:57:00,49.1,41.5,29.00,SE,135,2.3,2.3,75,0.00,CLR,OVC,0.00,WeatherDisplay:10.37,2013-06-10 05:57:00,
2013-06-09 23:02:00,48.9,41.7,29.00,West,270,4.6,4.6,76,0.00,CLR,OVC,0.00,WeatherDisplay:10.37,2013-06-10 06:02:00,
2013-06-09 23:07:00,48.7,41.5,29.00,SW,225,2.3,2.3,76,0.00,CLR,OVC,0.00,WeatherDisplay:10.37,2013-06-10 06:07:00,
2013-06-09 23:12:00,48.6,41.3,29.00,NW,315,2.3,2.3,76,0.00,CLR,OVC,0.00,WeatherDisplay:10.37,2013-06-10 06:12:00,
2013-06-09 23:17:00,48.4,41.2,29.00,East,90,2.3,2.3,76,0.00,CLR,OVC,0.00,WeatherDisplay:10.37,2013-06-10 06:17:00,
2013-06-09 23:22:00,48.2,41.3,29.00,South,180,3.5,3.5,77,0.00,CLR,OVC,0.00,WeatherDisplay:10.37,2013-06-10 06:22:00,
2013-06-09 23:27:00,48.0,41.2,29.00,South,180,1.2,1.2,77,0.00,CLR,OVC,0.00,WeatherDisplay:10.37,2013-06-10 06:27:00,
2013-06-09 23:32:00,47.8,41.3,29.00,West,270,2.3,2.3,78,0.00,CLR,OVC,0.00,WeatherDisplay:10.37,2013-06-10 06:32:00,
2013-06-09 23:37:00,47.7,41.1,29.00,SW,225,2.3,2.3,78,0.00,CLR,OVC,0.00,WeatherDisplay:10.37,2013-06-10 06:37:00,
2013-06-09 23:42:00,47.5,41.3,29.00,SSE,158,2.3,2.3,79,0.00,CLR,OVC,0.00,WeatherDisplay:10.37,2013-06-10 06:42:00,
2013-06-09 23:47:00,47.3,41.4,29.00,West,270,3.3,3.3,80,0.00,CLR,OVC,0.00,WeatherDisplay:10.37,2013-06-10 06:47:00,
2013-06-09 23:52:00,47.3,41.4,29.00,NNW,338,2.3,2.3,80,0.00,CLR,OVC,0.00,WeatherDisplay:10.37,2013-06-10 06:52:00,
2013-06-09 23:57:00,47.1,41.3,29.00,South,180,2.3,2.3,80,0.00,CLR,OVC,0.00,WeatherDisplay:10.37,2013-06-10 06:57:00,